Location: Unspecified
(0.0000°N, 0.0000°E)
Time: 02:42:30
(UTC+00:00)

Vanguard 2 - Visible Passes

Search period start: 24 November 2014 00:00
Search period end: 04 December 2014 00:00
Orbit: 553 x 2947 km, 32.9° (Epoch: 22 November)

Date Brightness Start Highest point End Pass type
(mag) Time Alt. Az. Time Alt. Az. Time Alt. Az.
24 Nov 7.8 03:53:49 56° SW 03:55:11 89° NW 04:03:35 10° NE visible
25 Nov 8.1 04:12:53 43° WNW 04:14:29 55° NNW 04:22:51 10° NE visible
26 Nov 10.5 02:30:19 11° ENE 02:30:19 11° ENE 02:30:31 10° ENE visible
26 Nov 8.7 04:31:54 28° WNW 04:34:01 35° NNW 04:41:46 10° NE visible
27 Nov 10.3 02:49:16 14° ENE 02:49:16 14° ENE 02:50:17 10° ENE visible
27 Nov 9.2 04:50:50 17° WNW 04:53:47 23° NNW 05:00:22 10° NNE visible
27 Nov 11.3 18:11:51 10° WSW 18:18:20 15° SW 18:23:34 10° S visible
28 Nov 10.1 03:08:08 16° NE 03:08:08 16° NE 03:09:35 10° NE visible
28 Nov 9.7 05:09:56 10° NW 05:13:43 16° NNW 05:18:32 10° NNE visible
29 Nov 10.0 03:26:56 16° NNE 03:26:56 16° NNE 03:28:28 10° NE visible
30 Nov 10.0 03:45:38 14° NNE 03:45:38 14° NNE 03:46:55 10° NNE visible
01 Dec 10.1 04:04:16 11° N 04:04:16 11° N 04:04:34 10° N visible
